Location: Vista Encantada
(35.1109°N, 106.5681°W)
Time: 21:40:24
(UTC+00:00)

Nauka - Pass Details

Date: 03 October 2021
Orbit: 417 x 423 km, 51.6° (Epoch: 22 October)

Event Time Altitude Azimuth Distance (km) Brightness Sun altitude
Rises 02:52:11 0° 316° (NW) 2,363 ? -26.0°
Reaches altitude 10° 02:54:19 10° 322° (NW) 1,498 ? -26.4°
Enters shadow 02:55:22 18° 328° (NNW) 1,098 ? -26.6°
